Weather History for KTPA - November, 2013

Change the Weather History Date:

Monday, November 4, 2013

  Actual Average Record
Temperature  
Mean Temperature 70 °F 72 °F  
Max Temperature 79 °F 80 °F 90 °F (1961)
Min Temperature 60 °F 63 °F 36 °F (1966)
Degree Days  
Heating Degree Days 0 1  
Month to date heating degree days 0 2  
Since 1 July heating degree days 0 6  
Cooling Degree Days 5 7  
Month to date cooling degree days 27 30  
Year to date cooling degree days 3568 3396  
Growing Degree Days 20 (Base 50)    
Moisture  
Dew Point 55 °F    
Average Humidity 60    
Maximum Humidity 78    
Minimum Humidity 42    
Precipitation  
Precipitation 0.00 in 0.05 in 1.47 in (1919)
Month to date precipitation 0.58 0.20  
Year to date precipitation 51.29 42.48  
Sea Level Pressure  
Sea Level Pressure 30.15 in    
Wind  
Wind Speed 9 mph (NE)    
Max Wind Speed 16 mph    
Max Gust Speed 26 mph    
Visibility 10 miles    
Events      
T = Trace of Precipitation, MM = Missing Value Source: NWS Daily Summary

Daily Weather History Graph

Daily Weather History Graph

Search for Another Location

Airport or City:

Trip Planner

Search our weather history database for the weather conditions in past years. The results will help you decide how hot, cold, wet, or windy it might be!

Date:

Astronomy

Nov. 04, 2013 Rise Set
Actual Time 6:43 AM EST 5:43 PM EST
Civil Twilight 6:19 AM EST 6:07 PM EST
Nautical Twilight 5:51 AM EST 6:35 PM EST
Astronomical Twilight 5:23 AM EST 7:03 PM EST
Moon 7:48 AM EST (11/4) 6:53 PM EST (11/4)
Length of Visible Light 11h 48m
Length of Day
10h 59m
New Moon, 2% of the Moon is Illuminated
Nov 4
New Moon
Nov 10
First Quarter
Nov 17
Full
Nov 25
Last Quarter
Dec 2
New

Hourly Weather History & Observations

Time (EST) Temp. Dew Point Humidity Pressure Visibility Wind Dir Wind Speed Gust Speed Precip Events Conditions
12:53 AM 61.0 °F 50.0 °F 67% 30.13 in 10.0 mi NNE 11.5 mph 16.1 mph N/A   Clear
1:53 AM 60.1 °F 50.0 °F 69% 30.12 in 10.0 mi NE 6.9 mph - N/A   Clear
2:53 AM 60.1 °F 51.1 °F 72% 30.13 in 10.0 mi NNE 6.9 mph - N/A   Partly Cloudy
3:53 AM 61.0 °F 52.0 °F 72% 30.13 in 10.0 mi NNE 6.9 mph - N/A   Scattered Clouds
4:53 AM 62.1 °F 53.1 °F 72% 30.14 in 10.0 mi NNE 10.4 mph - N/A   Mostly Cloudy
5:53 AM 63.0 °F 53.1 °F 70% 30.14 in 10.0 mi NNE 6.9 mph - N/A   Mostly Cloudy
6:53 AM 64.0 °F 53.1 °F 67% 30.16 in 10.0 mi NNE 9.2 mph - N/A   Overcast
7:53 AM 64.9 °F 54.0 °F 68% 30.17 in 10.0 mi NE 10.4 mph - N/A   Overcast
8:53 AM 68.0 °F 54.0 °F 61% 30.17 in 10.0 mi NE 9.2 mph - N/A   Overcast
9:53 AM 70.0 °F 54.0 °F 57% 30.18 in 10.0 mi NE 8.1 mph 17.3 mph N/A   Overcast
10:53 AM 73.9 °F 55.9 °F 53% 30.17 in 10.0 mi NE 12.7 mph 18.4 mph N/A   Mostly Cloudy
11:53 AM 78.1 °F 57.0 °F 48% 30.16 in 10.0 mi ENE 8.1 mph 21.9 mph N/A   Mostly Cloudy
12:53 PM 78.1 °F 55.0 °F 45% 30.14 in 10.0 mi NE 8.1 mph 19.6 mph N/A   Overcast
1:53 PM 79.0 °F 55.9 °F 45% 30.12 in 10.0 mi ENE 8.1 mph 16.1 mph N/A   Mostly Cloudy
2:53 PM 77.0 °F 55.0 °F 47% 30.12 in 10.0 mi ENE 11.5 mph 16.1 mph N/A   Overcast
3:53 PM 78.1 °F 54.0 °F 43% 30.13 in 10.0 mi ENE 10.4 mph 19.6 mph N/A   Overcast
4:53 PM 75.9 °F 55.9 °F 50% 30.14 in 10.0 mi NE 9.2 mph 20.7 mph N/A   Overcast
5:53 PM 73.9 °F 57.0 °F 55% 30.14 in 10.0 mi NE 9.2 mph 19.6 mph N/A   Overcast
6:53 PM 73.0 °F 59.0 °F 61% 30.15 in 10.0 mi NE 5.8 mph - N/A   Overcast
7:53 PM 72.0 °F 59.0 °F 64% 30.17 in 10.0 mi NNE 9.2 mph - N/A   Mostly Cloudy
8:53 PM 71.1 °F 60.1 °F 68% 30.17 in 10.0 mi NNE 8.1 mph - N/A   Scattered Clouds
9:53 PM 70.0 °F 61.0 °F 73% 30.17 in 10.0 mi NE 11.5 mph 20.7 mph N/A   Partly Cloudy
10:53 PM 70.0 °F 62.1 °F 76% 30.17 in 10.0 mi NE 9.2 mph - N/A   Mostly Cloudy
11:53 PM 69.1 °F 63.0 °F 81% 30.18 in 10.0 mi NE 6.9 mph - N/A   Overcast